Year,Month,Day,Hour,Minute,Value (Times are PST for temperature in C)
2007,04,02,00,00,2.70
2007,04,02,00,01,2.70
2007,04,02,00,02,2.70
2007,04,02,00,03,2.70
2007,04,02,00,04,2.70
2007,04,02,00,05,2.70
2007,04,02,00,06,2.70
2007,04,02,00,07,2.70
2007,04,02,00,08,2.70
2007,04,02,00,09,2.70
2007,04,02,00,10,2.70
2007,04,02,00,11,2.70
2007,04,02,00,12,2.70
2007,04,02,00,13,2.70
2007,04,02,00,14,2.70
2007,04,02,00,15,2.70
2007,04,02,00,16,2.70
2007,04,02,00,17,2.70
2007,04,02,00,18,2.70
2007,04,02,00,19,2.70
2007,04,02,00,20,2.70
2007,04,02,00,21,2.70
2007,04,02,00,22,2.70
2007,04,02,00,23,2.70
2007,04,02,00,24,2.70
2007,04,02,00,25,2.70
2007,04,02,00,26,2.70
2007,04,02,00,27,2.70
2007,04,02,00,28,2.70
2007,04,02,00,29,2.70
2007,04,02,00,30,2.70
2007,04,02,00,31,2.70
2007,04,02,00,32,2.80
2007,04,02,00,33,2.80
2007,04,02,00,34,2.80
2007,04,02,00,35,2.80
2007,04,02,00,36,2.80
2007,04,02,00,37,2.80
2007,04,02,00,38,2.80
2007,04,02,00,39,2.80
2007,04,02,00,40,2.80
2007,04,02,00,41,2.70
2007,04,02,00,42,2.70
2007,04,02,00,43,2.70
2007,04,02,00,44,2.70
2007,04,02,00,45,2.70
2007,04,02,00,46,2.70
2007,04,02,00,47,2.70
2007,04,02,00,48,2.70
2007,04,02,00,49,2.70
2007,04,02,00,50,2.70
2007,04,02,00,51,2.60
2007,04,02,00,52,2.60
2007,04,02,00,53,2.60
2007,04,02,00,54,2.50
2007,04,02,00,55,2.50
2007,04,02,00,56,2.50
2007,04,02,00,57,2.40
2007,04,02,00,58,2.40
2007,04,02,00,59,2.40
2007,04,02,01,00,2.40
2007,04,02,01,01,2.30
2007,04,02,01,02,2.30
2007,04,02,01,03,2.30
2007,04,02,01,04,2.30
2007,04,02,01,05,2.30
2007,04,02,01,06,2.30
2007,04,02,01,07,2.30
2007,04,02,01,08,2.30
2007,04,02,01,09,2.30
2007,04,02,01,10,2.30
2007,04,02,01,11,2.30
2007,04,02,01,12,2.30
2007,04,02,01,13,2.30
2007,04,02,01,14,2.30
2007,04,02,01,15,2.30
2007,04,02,01,16,2.30
2007,04,02,01,17,2.30
2007,04,02,01,18,2.30
2007,04,02,01,19,2.30
2007,04,02,01,20,2.30
2007,04,02,01,21,2.30
2007,04,02,01,22,2.40
2007,04,02,01,23,2.40
2007,04,02,01,24,2.40
2007,04,02,01,25,2.40
2007,04,02,01,26,2.40
2007,04,02,01,27,2.40
2007,04,02,01,28,2.50
2007,04,02,01,29,2.50
2007,04,02,01,30,2.50
2007,04,02,01,31,2.50
2007,04,02,01,32,2.50
2007,04,02,01,33,2.50
2007,04,02,01,34,2.50
2007,04,02,01,35,2.50
2007,04,02,01,36,2.50
2007,04,02,01,37,2.50
2007,04,02,01,38,2.50
2007,04,02,01,39,2.50
2007,04,02,01,40,2.50
2007,04,02,01,41,2.50
2007,04,02,01,42,2.50
2007,04,02,01,43,2.40
2007,04,02,01,44,2.40
2007,04,02,01,45,2.40
2007,04,02,01,46,2.30
2007,04,02,01,47,2.30
2007,04,02,01,48,2.30
2007,04,02,01,49,2.30
2007,04,02,01,50,2.30
2007,04,02,01,51,2.30
2007,04,02,01,52,2.20
2007,04,02,01,53,2.20
2007,04,02,01,54,2.20
2007,04,02,01,55,2.20
2007,04,02,01,56,2.20
2007,04,02,01,57,2.20
2007,04,02,01,58,2.20
2007,04,02,01,59,2.20
2007,04,02,02,00,2.30
2007,04,02,02,01,2.30
2007,04,02,02,02,2.30
2007,04,02,02,03,2.30
2007,04,02,02,04,2.30
2007,04,02,02,05,2.40
2007,04,02,02,06,2.40
2007,04,02,02,07,2.40
2007,04,02,02,08,2.40
2007,04,02,02,09,2.40
2007,04,02,02,10,2.40
2007,04,02,02,11,2.40
2007,04,02,02,12,2.30
2007,04,02,02,13,2.30
2007,04,02,02,14,2.30
2007,04,02,02,15,2.30
2007,04,02,02,16,2.30
2007,04,02,02,17,2.30
2007,04,02,02,18,2.20
2007,04,02,02,19,2.20
2007,04,02,02,20,2.20
2007,04,02,02,21,2.30
2007,04,02,02,22,2.30
2007,04,02,02,23,2.30
2007,04,02,02,24,2.30
2007,04,02,02,25,2.30
2007,04,02,02,26,2.30
2007,04,02,02,27,2.30
2007,04,02,02,28,2.30
2007,04,02,02,29,2.30
2007,04,02,02,30,2.30
2007,04,02,02,31,2.30
2007,04,02,02,32,2.30
2007,04,02,02,33,2.40
2007,04,02,02,34,2.40
2007,04,02,02,35,2.40
2007,04,02,02,36,2.40
2007,04,02,02,37,2.40
2007,04,02,02,38,2.40
2007,04,02,02,39,2.40
2007,04,02,02,40,2.40
2007,04,02,02,41,2.40
2007,04,02,02,42,2.40
2007,04,02,02,43,2.40
2007,04,02,02,44,2.40
2007,04,02,02,45,2.40
2007,04,02,02,46,2.40
2007,04,02,02,47,2.40
2007,04,02,02,48,2.40
2007,04,02,02,49,2.40
2007,04,02,02,50,2.40
2007,04,02,02,51,2.40
2007,04,02,02,52,2.40
2007,04,02,02,53,2.40
2007,04,02,02,54,2.50
2007,04,02,02,55,2.50
2007,04,02,02,56,2.50
2007,04,02,02,57,2.50
2007,04,02,02,58,2.50
2007,04,02,02,59,2.50
2007,04,02,03,00,2.50
2007,04,02,03,01,2.50
2007,04,02,03,02,2.50
2007,04,02,03,03,2.50
2007,04,02,03,04,2.50
2007,04,02,03,05,2.50
2007,04,02,03,06,2.60
2007,04,02,03,07,2.60
2007,04,02,03,08,2.60
2007,04,02,03,09,2.60
2007,04,02,03,10,2.60
2007,04,02,03,11,2.60
2007,04,02,03,12,2.60
2007,04,02,03,13,2.60
2007,04,02,03,14,2.70
2007,04,02,03,15,2.70
2007,04,02,03,16,2.70
2007,04,02,03,17,2.70
2007,04,02,03,18,2.60
2007,04,02,03,19,2.60
2007,04,02,03,20,2.50
2007,04,02,03,21,2.50
2007,04,02,03,22,2.50
2007,04,02,03,23,2.40
2007,04,02,03,24,2.40
2007,04,02,03,25,2.40
2007,04,02,03,26,2.30
2007,04,02,03,27,2.30
2007,04,02,03,28,2.30
2007,04,02,03,29,2.30
2007,04,02,03,30,2.30
2007,04,02,03,31,2.30
2007,04,02,03,32,2.20
2007,04,02,03,33,2.20
2007,04,02,03,34,2.20
2007,04,02,03,35,2.20
2007,04,02,03,36,2.20
2007,04,02,03,37,2.20
2007,04,02,03,38,2.20
2007,04,02,03,39,2.20
2007,04,02,03,40,2.20
2007,04,02,03,41,2.20
2007,04,02,03,42,2.20
2007,04,02,03,43,2.10
2007,04,02,03,44,2.10
2007,04,02,03,45,2.10
2007,04,02,03,46,2.10
2007,04,02,03,47,2.10
2007,04,02,03,48,2.10
2007,04,02,03,49,2.10
2007,04,02,03,50,2.10
2007,04,02,03,51,2.10
2007,04,02,03,52,2.10
2007,04,02,03,53,2.10
2007,04,02,03,54,2.10
2007,04,02,03,55,2.10
2007,04,02,03,56,2.10
2007,04,02,03,57,2.10
2007,04,02,03,58,2.00
2007,04,02,03,59,2.00
2007,04,02,04,00,2.00
2007,04,02,04,01,2.00
2007,04,02,04,02,2.00
2007,04,02,04,03,2.00
2007,04,02,04,04,2.00
2007,04,02,04,05,2.00
2007,04,02,04,06,2.00
2007,04,02,04,07,2.00
2007,04,02,04,08,2.00
2007,04,02,04,09,2.00
2007,04,02,04,10,2.00
2007,04,02,04,11,2.00
2007,04,02,04,12,2.00
2007,04,02,04,13,2.00
2007,04,02,04,14,2.00
2007,04,02,04,15,2.00
2007,04,02,04,16,2.00
2007,04,02,04,17,1.90
2007,04,02,04,18,1.90
2007,04,02,04,19,1.90
2007,04,02,04,20,1.90
2007,04,02,04,21,1.90
2007,04,02,04,22,1.90
2007,04,02,04,23,1.90
2007,04,02,04,24,1.80
2007,04,02,04,25,1.80
2007,04,02,04,26,1.80
2007,04,02,04,27,1.80
2007,04,02,04,28,1.80
2007,04,02,04,29,1.70
2007,04,02,04,30,1.70
2007,04,02,04,31,1.60
2007,04,02,04,32,1.50
2007,04,02,04,33,1.50
2007,04,02,04,34,1.50
2007,04,02,04,35,1.40
2007,04,02,04,36,1.40
2007,04,02,04,37,1.40
2007,04,02,04,38,1.40
2007,04,02,04,39,1.40
2007,04,02,04,40,1.30
2007,04,02,04,41,1.30
2007,04,02,04,42,1.30
2007,04,02,04,43,1.30
2007,04,02,04,44,1.30
2007,04,02,04,45,1.30
2007,04,02,04,46,1.30
2007,04,02,04,47,1.30
2007,04,02,04,48,1.30
2007,04,02,04,49,1.30
2007,04,02,04,50,1.30
2007,04,02,04,51,1.30
2007,04,02,04,52,1.30
2007,04,02,04,53,1.30
2007,04,02,04,54,1.30
2007,04,02,04,55,1.30
2007,04,02,04,56,1.30
2007,04,02,04,57,1.30
2007,04,02,04,58,1.30
2007,04,02,04,59,1.30
2007,04,02,05,00,1.30
2007,04,02,05,01,1.30
2007,04,02,05,02,1.20
2007,04,02,05,03,1.20
2007,04,02,05,04,1.10
2007,04,02,05,05,1.10
2007,04,02,05,06,1.10
2007,04,02,05,07,1.10
2007,04,02,05,08,1.10
2007,04,02,05,09,1.10
2007,04,02,05,10,1.10
2007,04,02,05,11,1.10
2007,04,02,05,12,1.10
2007,04,02,05,13,1.00
2007,04,02,05,14,1.00
2007,04,02,05,15,1.00
2007,04,02,05,16,1.00
2007,04,02,05,17,1.00
2007,04,02,05,18,0.90
2007,04,02,05,19,0.90
2007,04,02,05,20,0.90
2007,04,02,05,21,0.80
2007,04,02,05,22,0.80
2007,04,02,05,23,0.80
2007,04,02,05,24,0.80
2007,04,02,05,25,0.80
2007,04,02,05,26,0.80
2007,04,02,05,27,0.80
2007,04,02,05,28,0.80
2007,04,02,05,29,0.80
2007,04,02,05,30,0.70
2007,04,02,05,31,0.70
2007,04,02,05,32,0.70
2007,04,02,05,33,0.70
2007,04,02,05,34,0.60
2007,04,02,05,35,0.60
2007,04,02,05,36,0.50
2007,04,02,05,37,0.50
2007,04,02,05,38,0.40
2007,04,02,05,39,0.40
2007,04,02,05,40,0.40
2007,04,02,05,41,0.40
2007,04,02,05,42,0.40
2007,04,02,05,43,0.40
2007,04,02,05,44,0.40
2007,04,02,05,45,0.40
2007,04,02,05,46,0.30
2007,04,02,05,47,0.30
2007,04,02,05,48,0.30
2007,04,02,05,49,0.30
2007,04,02,05,50,0.30
2007,04,02,05,51,0.30
2007,04,02,05,52,0.20
2007,04,02,05,53,0.20
2007,04,02,05,54,0.20
2007,04,02,05,55,0.20
2007,04,02,05,56,0.20
2007,04,02,05,57,0.20
2007,04,02,05,58,0.20
2007,04,02,05,59,0.20
2007,04,02,06,00,0.10
2007,04,02,06,01,0.10
2007,04,02,06,02,0.10
2007,04,02,06,03,0.10
2007,04,02,06,04,0.10
2007,04,02,06,05,0.10
2007,04,02,06,06,0.10
2007,04,02,06,07,0.10
2007,04,02,06,08,0.10
2007,04,02,06,09,0.10
2007,04,02,06,10,0.10
2007,04,02,06,11,0.10
2007,04,02,06,12,0.10
2007,04,02,06,13,0.10
2007,04,02,06,14,0.10
2007,04,02,06,15,0.10
2007,04,02,06,16,0.10
2007,04,02,06,17,0.00
2007,04,02,06,18,-0.10
2007,04,02,06,19,-0.10
2007,04,02,06,20,-0.10
2007,04,02,06,21,-0.10
2007,04,02,06,22,-0.10
2007,04,02,06,23,-0.10
2007,04,02,06,24,-0.20
2007,04,02,06,25,-0.20
2007,04,02,06,26,-0.20
2007,04,02,06,27,-0.20
2007,04,02,06,28,-0.30
2007,04,02,06,29,-0.30
2007,04,02,06,30,-0.30
2007,04,02,06,31,-0.30
2007,04,02,06,32,-0.30
2007,04,02,06,33,-0.30
2007,04,02,06,34,-0.30
2007,04,02,06,35,-0.30
2007,04,02,06,36,-0.40
2007,04,02,06,37,-0.40
2007,04,02,06,38,-0.40
2007,04,02,06,39,-0.40
2007,04,02,06,40,-0.40
2007,04,02,06,41,-0.40
2007,04,02,06,42,-0.40
2007,04,02,06,43,-0.40
2007,04,02,06,44,-0.40
2007,04,02,06,45,-0.40
2007,04,02,06,46,-0.40
2007,04,02,06,47,-0.30
2007,04,02,06,48,-0.30
2007,04,02,06,49,-0.30
2007,04,02,06,50,-0.30
2007,04,02,06,51,-0.30
2007,04,02,06,52,-0.40
2007,04,02,06,53,-0.40
2007,04,02,06,54,-0.40
2007,04,02,06,55,-0.40
2007,04,02,06,56,-0.40
2007,04,02,06,57,-0.40
2007,04,02,06,58,-0.40
2007,04,02,06,59,-0.40
2007,04,02,07,00,-0.40
2007,04,02,07,01,-0.30
2007,04,02,07,02,-0.30
2007,04,02,07,03,-0.30
2007,04,02,07,04,-0.30
2007,04,02,07,05,-0.30
2007,04,02,07,06,-0.40
2007,04,02,07,07,-0.40
2007,04,02,07,08,-0.40
2007,04,02,07,09,-0.40
2007,04,02,07,10,-0.40
2007,04,02,07,11,-0.40
2007,04,02,07,12,-0.40
2007,04,02,07,13,-0.40
2007,04,02,07,14,-0.40
2007,04,02,07,15,-0.40
2007,04,02,07,16,-0.40
2007,04,02,07,17,-0.40
2007,04,02,07,18,-0.40
2007,04,02,07,19,-0.40
2007,04,02,07,20,-0.40
2007,04,02,07,21,-0.40
2007,04,02,07,22,-0.40
2007,04,02,07,23,-0.30
2007,04,02,07,24,-0.30
2007,04,02,07,25,-0.30
2007,04,02,07,26,-0.30
2007,04,02,07,27,-0.30
2007,04,02,07,28,-0.20
2007,04,02,07,29,-0.20
2007,04,02,07,30,-0.10
2007,04,02,07,31,-0.10
2007,04,02,07,32,-0.10
2007,04,02,07,33,-0.10
2007,04,02,07,34,0.10
2007,04,02,07,35,0.10
2007,04,02,07,36,0.20
2007,04,02,07,37,0.30
2007,04,02,07,38,0.40
2007,04,02,07,39,0.40
2007,04,02,07,40,0.40
2007,04,02,07,41,0.50
2007,04,02,07,42,0.60
2007,04,02,07,43,0.60
2007,04,02,07,44,0.70
2007,04,02,07,45,0.80
2007,04,02,07,46,0.80
2007,04,02,07,47,0.80
2007,04,02,07,48,0.90
2007,04,02,07,49,1.00
2007,04,02,07,50,1.10
2007,04,02,07,51,1.20
2007,04,02,07,52,1.30
2007,04,02,07,53,1.30
2007,04,02,07,54,1.30
2007,04,02,07,55,1.30
2007,04,02,07,56,1.30
2007,04,02,07,57,1.30
2007,04,02,07,58,1.30
2007,04,02,07,59,1.40
2007,04,02,08,00,1.40
2007,04,02,08,01,1.50
2007,04,02,08,02,1.50
2007,04,02,08,03,1.60
2007,04,02,08,04,1.70
2007,04,02,08,05,1.70
2007,04,02,08,06,1.80
2007,04,02,08,07,1.90
2007,04,02,08,08,2.00
2007,04,02,08,09,2.10
2007,04,02,08,10,2.20
2007,04,02,08,11,2.30
2007,04,02,08,12,2.40
2007,04,02,08,13,2.50
2007,04,02,08,14,2.60
2007,04,02,08,15,2.60
2007,04,02,08,16,2.60
2007,04,02,08,17,2.70
2007,04,02,08,18,2.70
2007,04,02,08,19,2.70
2007,04,02,08,20,2.80
2007,04,02,08,21,2.90
2007,04,02,08,22,3.00
2007,04,02,08,23,3.10
2007,04,02,08,24,3.20
2007,04,02,08,25,3.30
2007,04,02,08,26,3.30
2007,04,02,08,27,3.40
2007,04,02,08,28,3.50
2007,04,02,08,29,3.60
2007,04,02,08,30,3.70
2007,04,02,08,31,3.80
2007,04,02,08,32,3.90
2007,04,02,08,33,3.90
2007,04,02,08,34,3.90
2007,04,02,08,35,3.90
2007,04,02,08,36,4.00
2007,04,02,08,37,4.00
2007,04,02,08,38,4.00
2007,04,02,08,39,4.00
2007,04,02,08,40,3.90
2007,04,02,08,41,3.80
2007,04,02,08,42,3.80
2007,04,02,08,43,3.90
2007,04,02,08,44,3.90
2007,04,02,08,45,3.90
2007,04,02,08,46,4.00
2007,04,02,08,47,4.10
2007,04,02,08,48,4.20
2007,04,02,08,49,4.20
2007,04,02,08,50,4.30
2007,04,02,08,51,4.30
2007,04,02,08,52,4.40
2007,04,02,08,53,4.60
2007,04,02,08,54,4.60
2007,04,02,08,55,4.60
2007,04,02,08,56,4.60
2007,04,02,08,57,4.60
2007,04,02,08,58,4.60
2007,04,02,08,59,4.70
2007,04,02,09,00,4.80
2007,04,02,09,01,4.90
2007,04,02,09,02,5.00
2007,04,02,09,03,5.10
2007,04,02,09,04,5.10
2007,04,02,09,05,5.20
2007,04,02,09,06,5.30
2007,04,02,09,07,5.30
2007,04,02,09,08,5.30
2007,04,02,09,09,5.30
2007,04,02,09,10,5.30
2007,04,02,09,11,5.40
2007,04,02,09,12,5.50
2007,04,02,09,13,5.50
2007,04,02,09,14,5.60
2007,04,02,09,15,5.70
2007,04,02,09,16,5.80
2007,04,02,09,17,5.90
2007,04,02,09,18,6.00
2007,04,02,09,19,6.00
2007,04,02,09,20,6.00
2007,04,02,09,21,6.00
2007,04,02,09,22,6.10
2007,04,02,09,23,6.10
2007,04,02,09,24,6.10
2007,04,02,09,25,6.20
2007,04,02,09,26,6.20
2007,04,02,09,27,6.20
2007,04,02,09,28,6.10
2007,04,02,09,29,6.00
2007,04,02,09,30,6.00
2007,04,02,09,31,6.00
2007,04,02,09,32,5.90
2007,04,02,09,33,5.90
2007,04,02,09,34,5.90
2007,04,02,09,35,5.90
2007,04,02,09,36,6.00
2007,04,02,09,37,6.10
2007,04,02,09,38,6.10
2007,04,02,09,39,6.00
2007,04,02,09,40,5.90
2007,04,02,09,41,5.90
2007,04,02,09,42,5.80
2007,04,02,09,43,5.80
2007,04,02,09,44,5.80
2007,04,02,09,45,5.80
2007,04,02,09,46,6.00
2007,04,02,09,47,6.10
2007,04,02,09,48,6.20
2007,04,02,09,49,6.30
2007,04,02,09,50,6.40
2007,04,02,09,51,6.40
2007,04,02,09,52,6.40
2007,04,02,09,53,6.60
2007,04,02,09,54,6.60
2007,04,02,09,55,6.60
2007,04,02,09,56,6.60
2007,04,02,09,57,6.60
2007,04,02,09,58,6.60
2007,04,02,09,59,6.60
2007,04,02,10,00,6.50
2007,04,02,10,01,6.60
2007,04,02,10,02,6.60
2007,04,02,10,03,6.70
2007,04,02,10,04,6.80
2007,04,02,10,05,6.80
2007,04,02,10,06,6.70
2007,04,02,10,07,6.60
2007,04,02,10,08,6.60
2007,04,02,10,09,6.50
2007,04,02,10,10,6.40
2007,04,02,10,11,6.40
2007,04,02,10,12,6.40
2007,04,02,10,13,6.30
2007,04,02,10,14,6.30
2007,04,02,10,15,6.30
2007,04,02,10,16,6.30
2007,04,02,10,17,6.30
2007,04,02,10,18,6.30
2007,04,02,10,19,6.30
2007,04,02,10,20,6.30
2007,04,02,10,21,6.20
2007,04,02,10,22,6.20
2007,04,02,10,23,6.20
2007,04,02,10,24,6.20
2007,04,02,10,25,6.00
2007,04,02,10,26,6.00
2007,04,02,10,27,5.90
2007,04,02,10,28,6.00
2007,04,02,10,29,6.00
2007,04,02,10,30,6.00
2007,04,02,10,31,6.00
2007,04,02,10,32,6.10
2007,04,02,10,33,6.10
2007,04,02,10,34,6.20
2007,04,02,10,35,6.40
2007,04,02,10,36,6.60
2007,04,02,10,37,6.60
2007,04,02,10,38,6.60
2007,04,02,10,39,6.60
2007,04,02,10,40,6.70
2007,04,02,10,41,6.80
2007,04,02,10,42,6.70
2007,04,02,10,43,6.80
2007,04,02,10,44,6.90
2007,04,02,10,45,6.90
2007,04,02,10,46,6.80
2007,04,02,10,47,6.80
2007,04,02,10,48,6.80
2007,04,02,10,49,6.90
2007,04,02,10,50,7.10
2007,04,02,10,51,7.10
2007,04,02,10,52,7.10
2007,04,02,10,53,7.20
2007,04,02,10,54,7.20
2007,04,02,10,55,7.10
2007,04,02,10,56,7.00
2007,04,02,10,57,7.00
2007,04,02,10,58,6.90
2007,04,02,10,59,6.90
2007,04,02,11,00,7.00
2007,04,02,11,01,7.00
2007,04,02,11,02,7.00
2007,04,02,11,03,7.30
2007,04,02,11,04,7.20
2007,04,02,11,05,7.10
2007,04,02,11,06,7.00
2007,04,02,11,07,7.00
2007,04,02,11,08,7.00
2007,04,02,11,09,7.00
2007,04,02,11,10,7.00
2007,04,02,11,11,7.00
2007,04,02,11,12,7.00
2007,04,02,11,13,7.10
2007,04,02,11,14,7.10
2007,04,02,11,15,7.00
2007,04,02,11,16,7.00
2007,04,02,11,17,7.00
2007,04,02,11,18,6.90
2007,04,02,11,19,6.90
2007,04,02,11,20,6.90
2007,04,02,11,21,6.80
2007,04,02,11,22,6.80
2007,04,02,11,23,6.80
2007,04,02,11,24,6.80
2007,04,02,11,25,6.80
2007,04,02,11,26,6.80
2007,04,02,11,27,6.80
2007,04,02,11,28,6.70
2007,04,02,11,29,6.60
2007,04,02,11,30,6.50
2007,04,02,11,31,6.40
2007,04,02,11,32,6.40
2007,04,02,11,33,6.40
2007,04,02,11,34,6.40
2007,04,02,11,35,6.40
2007,04,02,11,36,6.40
2007,04,02,11,37,6.40
2007,04,02,11,38,6.40
2007,04,02,11,39,6.40
2007,04,02,11,40,6.30
2007,04,02,11,41,6.30
2007,04,02,11,42,6.30
2007,04,02,11,43,6.20
2007,04,02,11,44,6.20
2007,04,02,11,45,6.20
2007,04,02,11,46,6.20
2007,04,02,11,47,6.20
2007,04,02,11,48,6.20
2007,04,02,11,49,6.20
2007,04,02,11,50,6.30
2007,04,02,11,51,6.40
2007,04,02,11,52,6.40
2007,04,02,11,53,6.50
2007,04,02,11,54,6.60
2007,04,02,11,55,6.60
2007,04,02,11,56,6.60
2007,04,02,11,57,6.60
2007,04,02,11,58,6.60
2007,04,02,11,59,6.40
2007,04,02,12,00,6.40
2007,04,02,12,01,6.40
2007,04,02,12,02,6.40
2007,04,02,12,03,6.40
2007,04,02,12,04,6.40
2007,04,02,12,05,6.30
2007,04,02,12,06,6.20
2007,04,02,12,07,6.20
2007,04,02,12,08,6.10
2007,04,02,12,09,6.00
2007,04,02,12,10,6.00
2007,04,02,12,11,6.00
2007,04,02,12,12,6.10
2007,04,02,12,13,6.10
2007,04,02,12,14,6.20
2007,04,02,12,15,6.20
2007,04,02,12,16,6.20
2007,04,02,12,17,6.20
2007,04,02,12,18,6.10
2007,04,02,12,19,6.10
2007,04,02,12,20,6.10
2007,04,02,12,21,6.10
2007,04,02,12,22,6.20
2007,04,02,12,23,6.20
2007,04,02,12,24,6.30
2007,04,02,12,25,6.30
2007,04,02,12,26,6.40
2007,04,02,12,27,6.50
2007,04,02,12,28,6.60
2007,04,02,12,29,6.60
2007,04,02,12,30,6.60
2007,04,02,12,31,6.60
2007,04,02,12,32,6.60
2007,04,02,12,33,6.60
2007,04,02,12,34,6.60
2007,04,02,12,35,6.60
2007,04,02,12,36,6.60
2007,04,02,12,37,6.70
2007,04,02,12,38,6.90
2007,04,02,12,39,7.00
2007,04,02,12,40,7.00
2007,04,02,12,41,7.20
2007,04,02,12,42,7.30
2007,04,02,12,43,7.30
2007,04,02,12,44,7.40
2007,04,02,12,45,7.60
2007,04,02,12,46,7.80
2007,04,02,12,47,7.90
2007,04,02,12,48,8.00
2007,04,02,12,49,8.10
2007,04,02,12,50,8.20
2007,04,02,12,51,8.20
2007,04,02,12,52,8.20
2007,04,02,12,53,8.20
2007,04,02,12,54,8.30
2007,04,02,12,55,8.30
2007,04,02,12,56,8.20
2007,04,02,12,57,8.00
2007,04,02,12,58,7.90
2007,04,02,12,59,7.80
2007,04,02,13,00,7.70
2007,04,02,13,01,7.60
2007,04,02,13,02,7.60
2007,04,02,13,03,7.60
2007,04,02,13,04,7.70
2007,04,02,13,05,7.70
2007,04,02,13,06,7.70
2007,04,02,13,07,7.70
2007,04,02,13,08,7.80
2007,04,02,13,09,7.90
2007,04,02,13,10,8.00
2007,04,02,13,11,8.10
2007,04,02,13,12,8.20
2007,04,02,13,13,8.10
2007,04,02,13,14,7.90
2007,04,02,13,15,7.80
2007,04,02,13,16,7.80
2007,04,02,13,17,8.00
2007,04,02,13,18,8.10
2007,04,02,13,19,8.20
2007,04,02,13,20,8.20
2007,04,02,13,21,8.30
2007,04,02,13,22,8.40
2007,04,02,13,23,8.50
2007,04,02,13,24,8.60
2007,04,02,13,25,8.50
2007,04,02,13,26,8.40
2007,04,02,13,27,8.40
2007,04,02,13,28,8.40
2007,04,02,13,29,8.30
2007,04,02,13,30,8.10
2007,04,02,13,31,8.10
2007,04,02,13,32,8.10
2007,04,02,13,33,8.00
2007,04,02,13,34,7.90
2007,04,02,13,35,7.80
2007,04,02,13,36,7.80
2007,04,02,13,37,7.80
2007,04,02,13,38,7.80
2007,04,02,13,39,7.80
2007,04,02,13,40,7.80
2007,04,02,13,41,7.80
2007,04,02,13,42,7.90
2007,04,02,13,43,8.00
2007,04,02,13,44,8.10
2007,04,02,13,45,8.20
2007,04,02,13,46,8.20
2007,04,02,13,47,8.20
2007,04,02,13,48,8.20
2007,04,02,13,49,8.20
2007,04,02,13,50,8.10
2007,04,02,13,51,8.10
2007,04,02,13,52,8.20
2007,04,02,13,53,8.20
2007,04,02,13,54,8.20
2007,04,02,13,55,8.30
2007,04,02,13,56,8.40
2007,04,02,13,57,8.50
2007,04,02,13,58,8.70
2007,04,02,13,59,8.70
2007,04,02,14,00,8.60
2007,04,02,14,01,8.50
2007,04,02,14,02,8.50
2007,04,02,14,03,8.50
2007,04,02,14,04,8.30
2007,04,02,14,05,8.30
2007,04,02,14,06,8.20
2007,04,02,14,07,8.20
2007,04,02,14,08,8.30
2007,04,02,14,09,8.40
2007,04,02,14,10,8.50
2007,04,02,14,11,8.50
2007,04,02,14,12,8.60
2007,04,02,14,13,8.60
2007,04,02,14,14,8.50
2007,04,02,14,15,8.40
2007,04,02,14,16,8.40
2007,04,02,14,17,8.40
2007,04,02,14,18,8.40
2007,04,02,14,19,8.40
2007,04,02,14,20,8.40
2007,04,02,14,21,8.40
2007,04,02,14,22,8.40
2007,04,02,14,23,8.30
2007,04,02,14,24,8.10
2007,04,02,14,25,8.00
2007,04,02,14,26,8.00
2007,04,02,14,27,7.90
2007,04,02,14,28,7.90
2007,04,02,14,29,7.80
2007,04,02,14,30,7.80
2007,04,02,14,31,7.80
2007,04,02,14,32,7.80
2007,04,02,14,33,7.80
2007,04,02,14,34,7.80
2007,04,02,14,35,7.80
2007,04,02,14,36,7.80
2007,04,02,14,37,7.80
2007,04,02,14,38,7.90
2007,04,02,14,39,7.90
2007,04,02,14,40,7.90
2007,04,02,14,41,7.80
2007,04,02,14,42,7.80
2007,04,02,14,43,7.80
2007,04,02,14,44,7.80
2007,04,02,14,45,7.80
2007,04,02,14,46,7.80
2007,04,02,14,47,7.70
2007,04,02,14,48,7.70
2007,04,02,14,49,7.70
2007,04,02,14,50,7.80
2007,04,02,14,51,7.80
2007,04,02,14,52,7.80
2007,04,02,14,53,7.70
2007,04,02,14,54,7.80
2007,04,02,14,55,7.80
2007,04,02,14,56,7.80
2007,04,02,14,57,7.80
2007,04,02,14,58,7.80
2007,04,02,14,59,7.90
2007,04,02,15,00,7.80
2007,04,02,15,01,7.80
2007,04,02,15,02,7.80
2007,04,02,15,03,7.90
2007,04,02,15,04,7.90
2007,04,02,15,05,8.00
2007,04,02,15,06,8.00
2007,04,02,15,07,8.00
2007,04,02,15,08,8.00
2007,04,02,15,09,8.10
2007,04,02,15,10,8.20
2007,04,02,15,11,8.30
2007,04,02,15,12,8.30
2007,04,02,15,13,8.30
2007,04,02,15,14,8.20
2007,04,02,15,15,8.20
2007,04,02,15,16,8.20
2007,04,02,15,17,8.20
2007,04,02,15,18,8.10
2007,04,02,15,19,8.00
2007,04,02,15,20,8.00
2007,04,02,15,21,7.90
2007,04,02,15,22,7.90
2007,04,02,15,23,7.80
2007,04,02,15,24,7.80
2007,04,02,15,25,7.80
2007,04,02,15,26,7.90
2007,04,02,15,27,7.90
2007,04,02,15,28,8.00
2007,04,02,15,29,8.00
2007,04,02,15,30,8.00
2007,04,02,15,31,8.00
2007,04,02,15,32,8.00
2007,04,02,15,33,8.10
2007,04,02,15,34,8.10
2007,04,02,15,35,8.10
2007,04,02,15,36,8.40
2007,04,02,15,37,8.50
2007,04,02,15,38,8.60
2007,04,02,15,39,8.80
2007,04,02,15,40,8.80
2007,04,02,15,41,8.80
2007,04,02,15,42,8.90
2007,04,02,15,43,8.90
2007,04,02,15,44,8.80
2007,04,02,15,45,8.80
2007,04,02,15,46,8.80
2007,04,02,15,47,8.80
2007,04,02,15,48,8.70
2007,04,02,15,49,8.70
2007,04,02,15,50,8.70
2007,04,02,15,51,8.60
2007,04,02,15,52,8.70
2007,04,02,15,53,8.80
2007,04,02,15,54,9.00
2007,04,02,15,55,9.10
2007,04,02,15,56,9.20
2007,04,02,15,57,9.20
2007,04,02,15,58,9.30
2007,04,02,15,59,9.30
2007,04,02,16,00,9.30
2007,04,02,16,01,9.20
2007,04,02,16,02,9.20
2007,04,02,16,03,9.20
2007,04,02,16,04,9.20
2007,04,02,16,05,9.10
2007,04,02,16,06,9.00
2007,04,02,16,07,8.80
2007,04,02,16,08,8.70
2007,04,02,16,09,8.50
2007,04,02,16,10,8.50
2007,04,02,16,11,8.40
2007,04,02,16,12,8.40
2007,04,02,16,13,8.40
2007,04,02,16,14,8.30
2007,04,02,16,15,8.30
2007,04,02,16,16,8.20
2007,04,02,16,17,8.20
2007,04,02,16,18,8.30
2007,04,02,16,19,8.30
2007,04,02,16,20,8.30
2007,04,02,16,21,8.20
2007,04,02,16,22,8.20
2007,04,02,16,23,8.20
2007,04,02,16,24,8.20
2007,04,02,16,25,8.10
2007,04,02,16,26,7.90
2007,04,02,16,27,7.80
2007,04,02,16,28,7.80
2007,04,02,16,29,7.80
2007,04,02,16,30,7.90
2007,04,02,16,31,7.90
2007,04,02,16,32,7.90
2007,04,02,16,33,7.90
2007,04,02,16,34,7.90
2007,04,02,16,35,7.80
2007,04,02,16,36,7.80
2007,04,02,16,37,7.80
2007,04,02,16,38,7.70
2007,04,02,16,39,7.70
2007,04,02,16,40,7.70
2007,04,02,16,41,7.70
2007,04,02,16,42,7.70
2007,04,02,16,43,7.60
2007,04,02,16,44,7.60
2007,04,02,16,45,7.60
2007,04,02,16,46,7.70
2007,04,02,16,47,7.60
2007,04,02,16,48,7.60
2007,04,02,16,49,7.50
2007,04,02,16,50,7.50
2007,04,02,16,51,7.40
2007,04,02,16,52,7.40
2007,04,02,16,53,7.30
2007,04,02,16,54,7.30
2007,04,02,16,55,7.30
2007,04,02,16,56,7.20
2007,04,02,16,57,7.20
2007,04,02,16,58,7.20
2007,04,02,16,59,7.10
2007,04,02,17,00,7.10
2007,04,02,17,01,7.00
2007,04,02,17,02,7.00
2007,04,02,17,03,6.90
2007,04,02,17,04,6.90
2007,04,02,17,05,6.90
2007,04,02,17,06,6.90
2007,04,02,17,07,7.00
2007,04,02,17,08,7.10
2007,04,02,17,09,7.10
2007,04,02,17,10,7.00
2007,04,02,17,11,7.10
2007,04,02,17,12,7.10
2007,04,02,17,13,7.20
2007,04,02,17,14,7.30
2007,04,02,17,15,7.30
2007,04,02,17,16,7.30
2007,04,02,17,17,7.40
2007,04,02,17,18,7.40
2007,04,02,17,19,7.40
2007,04,02,17,20,7.40
2007,04,02,17,21,7.40
2007,04,02,17,22,7.50
2007,04,02,17,23,7.50
2007,04,02,17,24,7.60
2007,04,02,17,25,7.60
2007,04,02,17,26,7.70
2007,04,02,17,27,7.70
2007,04,02,17,28,7.70
2007,04,02,17,29,7.70
2007,04,02,17,30,7.60
2007,04,02,17,31,7.60
2007,04,02,17,32,7.60
2007,04,02,17,33,7.60
2007,04,02,17,34,7.70
2007,04,02,17,35,7.70
2007,04,02,17,36,7.60
2007,04,02,17,37,7.70
2007,04,02,17,38,7.60
2007,04,02,17,39,7.50
2007,04,02,17,40,7.50
2007,04,02,17,41,7.50
2007,04,02,17,42,7.60
2007,04,02,17,43,7.60
2007,04,02,17,44,7.70
2007,04,02,17,45,7.70
2007,04,02,17,46,7.60
2007,04,02,17,47,7.60
2007,04,02,17,48,7.50
2007,04,02,17,49,7.50
2007,04,02,17,50,7.50
2007,04,02,17,51,7.50
2007,04,02,17,52,7.40
2007,04,02,17,53,7.40
2007,04,02,17,54,7.40
2007,04,02,17,55,7.40
2007,04,02,17,56,7.40
2007,04,02,17,57,7.40
2007,04,02,17,58,7.40
2007,04,02,17,59,7.40
2007,04,02,18,00,7.40
2007,04,02,18,01,7.40
2007,04,02,18,02,7.50
2007,04,02,18,03,7.50